STARLINK-3835 (52476 NORAD) Tracking and Keplerian Element Data

This shows tracking and keplerian element data for the satellite.

Feedback or suggestion? Click here.




ElementValue
Catalog52476
NameSTARLINK-3835
Epoch Orbit1622
Epoch Day229.25002315
Epoch Year2022
RAAN127.0209
Inclination53.2126
Eccentricity0.0001825
Argument of Perigee54.8113
Mean Anonmoly55.2534
Mean Motion15.08841293
Decay Rate0.00018736
L11 52476U 22049AB 22229.25002315 .00018736 00000+0 11921-2 0 9996
L22 52476 53.2126 127.0209 0001825 54.8113 55.2534 15.08841293 16220

Live tracking and technical data element details for STARLINK-3835 (NORAD 52476). STARLINK-3835 can be tracked NOW for your location showing map with azimuth and elevation plus other details from your city location.

Track the satellite on the map from your city or location and see movement details for azimuth, elevation, latitude, longitude, range, height, and movement on the map or in text.







IsCatalogInMostPopularTable: catalog: 52476, numindb: 6
Update: records affected: 1



GetName: 52476 STARLINK-3835

Hit Count: updated at: Thu, 18 Aug 2022 19:32:04 GMT